User: anonymous   Login
Location: SAPM � Hemmingford
(45.0500°N, 73.5833°W)
Time: 11:59:01
(UTC-05:00)
Language:

Cosmos 1603 - Orbit

View from above orbital plane
View from above orbital plane
View from above satellite
View from above satellite

Ground track
Ground track

The orbit data is extracted from the following two-line orbital elements,

1 15333U 84106A   17018.52210374  .00000113  00000-0  84282-4 0  9998
2 15333  71.0272  45.7677 0017414  72.4866 287.8157 14.14054748667108
Epoch (UTC): 18 January 2017 12:31:49
Eccentricity: 0.0017414
inclination: 71.0272°
perigee height: 833 km
apogee height: 858 km
right ascension of ascending node: 45.7677°
argument of perigee: 72.4866°
revolutions per day: 14.14054748
mean anomaly at epoch: 287.8157°
orbit number at epoch: 66710

The dashed part of the orbit path shows where the satellite is in the earth's shadow,  

DLR